User: anonymous   Login
Location: Limerick
(52.6800°N, 8.6400°W)
Time: 20:31:58
(UTC+01:00)
Language:

Sapphire - Orbit

View from above orbital plane
View from above orbital plane
View from above satellite
View from above satellite

Ground track
Ground track

The orbit data is extracted from the following two-line orbital elements,

1 26932U 01043D   17235.20830774 -.00000030  00000-0  20549-4 0  9997
2 26932  67.0554 280.7025 0008728 256.5002 103.5127 14.30255770829956
Epoch (UTC): 23 August 2017 04:59:57
Eccentricity: 0.0008728
inclination: 67.0554°
perigee height: 784 km
apogee height: 797 km
right ascension of ascending node: 280.7025°
argument of perigee: 256.5002°
revolutions per day: 14.30255770
mean anomaly at epoch: 103.5127°
orbit number at epoch: 82995

The dashed part of the orbit path shows where the satellite is in the earth's shadow,  

DLR